Other Public Products
Issued by NWS Grand Forks, ND

Home | Current Version | Previous Version | Graphics & Text | Print | Product List | Glossary On
Versions: 1 2 3 4 5 6 7 8 9 10 11 12 13 14 15 16 17 18 19 20 21 22 23 24 25 26 27 28 29 30 31 32 33 34 35 36 37 38 39 40 41 42 43 44 45 46 47 48 49 50
000
FPUS83 KFGF 271610
OPUFGF
PRAIRIE TO PINES WEATHER ROUNDUP
NATIONAL WEATHER SERVICE EASTERN NORTH DAKOTA/GRAND FORKS ND
1000 AM CST THU NOV 27 2014

 **SATELLITE DATA USED TO AUGMENT SKY COVER AT AUTOMATED STATIONS**
 *****  WEATHER ACROSS EASTERN NORTH DAKOTA  *****

CITY           SKY/WX    TMP DP  RH WIND       PRES   REMARKS
GRAND FORKS    MOSUNNY   -3  -8  79 S10       30.48F WCI -20
GRAND FORKS AF SUNNY     -1  -7  74 SW9       30.47S WCI -17
GRAND CITY NWS   N/A     -2 N/A N/A SW9         N/A  WCI -18
BUXTON         NOT AVBL
DEVILS LAKE    MOSUNNY    0 -11  60 S13       30.32F WCI -18
FARGO          MOSUNNY   -3  -8  79 S7        30.51F WCI -16
WAHPETON ARPT  MOSUNNY   -4  -8  84 CALM      30.51F
$$

 *****  WEATHER ACROSS CENTRAL AND WESTERN NORTH DAKOTA  *****

CITY           SKY/WX    TMP DP  RH WIND       PRES   REMARKS
JAMESTOWN      PTSUNNY   -6 -14  68 S7        30.37F WCI -20
BISMARCK       CLOUDY     2  -1  88 SE9       30.29F WCI -13
MINOT          PTSUNNY    6   1  80 E8        30.20F WCI  -7
MINOT AFB      PTSUNNY    1  -2  85 SE7       30.21F WCI -11
GARRISON         N/A      6   4  91 SE9       30.21F WCI  -8
WILLISTON      CLOUDY    18  11  74 SE7       30.08F WCI   9
DICKINSON      FLURRIES  17  14  88 SE18      30.06F WCI   1
HETTINGER      LGT SNOW  14  11  87 SE16      30.11F FOG     WCI  -2
$$

 *****  OTHER OBSERVATIONS NORTHEAST NORTH DAKOTA  *****

CITY           SKY/WX    TMP DP  RH WIND       PRES   REMARKS
WALHALLA         N/A      0  -2  92 SW8       30.41F WCI -15
LANGDON        FAIR      -2  -6  84 SW16      30.32F WCI -23
CAVALIER       FAIR      -2  -8  78 S7        30.44S WCI -16
GRAFTON        FAIR      -2  -8  78 S13       30.47S WCI -21
CANDO          FAIR      -2  -8  78 S9        30.33F WCI -18
FORT TOTTEN    NOT AVBL
ROLLA          FAIR      -2  -4  92 S15       30.26F WCI -22
RUGBY          FAIR      -2  -8  78 S10       30.28F WCI -19
 ***** THE ABOVE OBSERVATIONS ARE NON NWS ARE NOT QUALITY
        CONTROLLED AND MAY MIS-REPORT RAIN FOR SNOW...
$$

 *****  OTHER OBSERVATIONS SOUTHEAST NORTH DAKOTA *****

CITY           SKY/WX    TMP DP  RH WIND       PRES   REMARKS
COOPERSTOWN    NOT AVBL
VALLEY CITY    FAIR      -9 -13  84 S5        30.42F WCI -21
OAKES            N/A     -9 -13  84 S5        30.44F WCI -21
GWINNER        SUNNY     -4  -9  77 S5        30.46S WCI -15
BUFFALO        NOT AVBL
WYNDMERE         N/A     -4  -9  77 E3          N/A
 ***** THE ABOVE OBSERVATIONS ARE NON NWS ARE NOT QUALITY
       CONTROLLED AND MAY MIS-REPORT RAIN FOR SNOW...
$$

  *****  WEATHER ACROSS NORTHERN MINNESOTA  *****

CITY           SKY/WX    TMP DP  RH WIND       PRES   REMARKS
FLAG ISLAND    MOSUNNY   -9 -13  84 CALM      30.43F
WARROAD        MOSUNNY   -8 -13  77 S3        30.44F
ROSEAU         MOSUNNY   -6 -11  77 S6        30.44F WCI -18
HALLOCK        SUNNY     -2  -8  78 S12       30.45S WCI -20
THF RVR FALLS  SUNNY     -8  -8 100 S7        30.45F WCI -22
HALSTAD          N/A     -5  -9  81 S6          N/A  WCI -17
FOSSTON        MOSUNNY   -8 -15  71 S5        30.46F WCI -19
BAUDETTE       MOSUNNY  -10 -13  86 CALM      30.43F
WASKISH        MOSUNNY   -6  -9  84 CALM      30.44F
CROOKSTON      SUNNY     -4  -9  77 S8        30.50F WCI -19
$$
  *****  WEATHER ACROSS CENTRAL AND WEST MINNESOTA  *****

CITY           SKY/WX    TMP DP  RH WIND       PRES   REMARKS
BEMIDJI        MOSUNNY  -10 -15  79 CALM      30.43F
PARK RAPIDS    MOSUNNY   -6  -9  86 CALM      30.44F
WADENA         MOSUNNY   -4  -8  84 SW5       30.46S WCI -15
DETROIT LAKES  SUNNY     -4  -8  84 CALM      30.46S
MOORHEAD       MOSUNNY   -6  -8  92 CALM      30.51F
FERGUS FALLS   MOSUNNY   -6 -11  77 CALM      30.53F
ELBOW LAKE     FAIR      -6 -10  83 CALM      30.48S FOG
MORRIS MN      SUNNY     -6  -9  84 CALM      30.49S
STAPLES        MOSUNNY   -6  -9  84 CALM      30.47S
WHEATON        MOSUNNY   -4  -9  77 CALM      30.52S
$$
  *****  WEATHER ELSEWHERE ACROSS MINNESOTA  *****

CITY           SKY/WX    TMP DP  RH WIND       PRES   REMARKS
DULUTH         SUNNY     -3 -10  72 NW13      30.39S WCI -22
INTRNTL FALLS  MOSUNNY   -8 -12  83 CALM      30.44S
ELY            SUNNY     -6  -9  84 CALM      30.40F
CLOQUET        SUNNY     -2  -9  71 NW8       30.43S WCI -17
BRAINERD       SUNNY     -4  -7  87 CALM      30.48S
HIBBING        MOSUNNY   -3 -10  72 CALM      30.43S
ALEXANDRIA     MOSUNNY   -3  -7  82 N3        30.47S
SAINT CLOUD    SUNNY      0  -8  69 NW5       30.51S WCI -10
MINNEAPOLIS    SUNNY      2  -5  72 NW5       30.53R WCI  -8
$$

  *****  WEATHER ACROSS SOUTH DAKOTA  *****

CITY           SKY/WX    TMP DP  RH WIND       PRES   REMARKS
SIOUX FALLS    PTSUNNY    4  -6  63 CALM      30.50R
BROOKINGS      NOT AVBL
WATERTOWN      MOSUNNY   -2  -9  72 S7        30.40F WCI -15
HURON          PTSUNNY    1  -6  72 SE10      30.45F WCI -15
SISSETON         N/A     -3  -8  79 S6        30.47F WCI -15
ABERDEEN       MOSUNNY   -3  -9  75 S3        30.45F
MITCHELL       CLOUDY     7  -5  57 SE12      30.48R WCI  -8
PIERRE         CLOUDY    14   8  77 SE18      30.29F WCI  -3
MOBRIDGE       CLOUDY     7   1  76 SE17      30.27F WCI -12
RAPID CITY     FOG       20  19  96 SE9       30.08F VSB 1   WCI   9
$$

  *****  SOME WEATHER IN NEARBY STATES *****

CITY           SKY/WX    TMP DP  RH WIND       PRES   REMARKS
GLASGOW MT     MIX PCPN  23  19  85 E21       29.89F FOG     WCI   8
GREAT FALLS MT CLEAR     45  31  58 SW22G31   29.78F
CHEYENNE WY    PTSUNNY   47  18  31 W23G36    30.18R
SCOTTSBLUFF NE CLOUDY    22  20  92 E6        30.14F WCI  14
OMAHA NE       CLOUDY    17   4  56 CALM      30.56R
DES MOINES IA  MOSUNNY    7  -3  64 W8        30.55R WCI  -6
DAVENPORT IA   MOSUNNY   18  12  77 W20       30.43R WCI   2
CHICAGO IL     PTSUNNY   26  18  71 NW13      30.32R WCI  15
EAU CLAIRE WI  SUNNY      3  -5  69 NW5       30.47R WCI  -6
LA CROSSE WI   SUNNY      9  -1  64 NW12      30.48R WCI  -6
$$

  *****  SOME NATIONAL WEATHER *****

CITY           SKY/WX    TMP DP  RH WIND       PRES   REMARKS
LA GUARDIA NY  LGT SNOW  36  32  87 NW8       30.00S FOG
RALEIGH NC     LGT RAIN  44  39  82 NW3       30.05R
ATLANTA GA     PTSUNNY   44  29  55 NW17G25   30.28R
NEW ORLEANS LA SUNNY     55  34  45 N18       30.45S
OKLAHOMA CITY  MOSUNNY   39  22  50 SE5       30.54R
ALBUQUERQUE NM SUNNY     38  22  52 NW6       30.49R
SALT LAKE CITY CLOUDY    48  24  39 SE14      30.28S
LOS ANGELES CA MOSUNNY   68  22  17 NE6       30.11R
BOISE ID       CLOUDY    50  36  58 SE9       30.12F
SEATTLE WA     MOCLDY    55  50  83 S12       29.86R
$$

*** WEATHER ACROSS MANITOBA...SASKATCHEWAN AND ONTARIO ***
                ***ONTARIO***

CITY           SKY/WX    TMP DP  RH WIND       PRES   REMARKS
GERALDTON      MOSUNNY  -11 -18  70 W3        30.33S
THUNDER BAY    MOSUNNY   -2 -11  65 W13       30.46R WCI -21
SIOUX LOOKOUT  CRYSTALS  -8 -13  77 W7        30.39S WCI -22
TORONTO        PTSUNNY   34  23  64 NW6       30.07S
BIG TROUT LK   SUNNY    -15 -18  84 SW8       30.27F WCI -32
PICKLE LAKE    MOSUNNY  -15 -22  70 W6        30.31S WCI -29
DRYDEN         SUNNY     -9 -13  84 SW6       30.39  WCI -23
KENORA         SUNNY     -9 -13  84 SW8       30.39F WCI -26
$$
                *** MANITOBA***

CITY           SKY/WX    TMP DP  RH WIND       PRES   REMARKS
BRANDON        CLOUDY    -6 -11  77 CALM      30.29F
DAUPHIN        PTSUNNY    1  -4  78 SW9       30.26F WCI -14
ISLAND LAKE    MOSUNNY   -9 -17  70 SW6       30.27F WCI -23
PILOT MOUND      N/A     -4  -8  84 S10         N/A  WCI -21
THE PAS        FLURRIES  -6  -9  84 S3        30.19R
THOMPSON       LGT SNOW  -9 -15  77 SW5       30.17R WCI -21
WINNIPEG       CRYSTALS  -9 -15  77 S9        30.42F WCI -27
LYNN LAKE      CLEAR     -6  -9  84 NW9       30.15R WCI -22
CHURCHILL      CRYSTALS  -8 -13  77 NW14      30.07S WCI -28
GILLAM         LGT SNOW  -9 -17  70 SW9       30.14R WCI -27
$$
                ***SASKATCHEWAN***

CITY           SKY/WX    TMP DP  RH WIND       PRES   REMARKS
ESTEVAN        LGT SNOW   9   5  85 E10       30.12F FOG     WCI  -6
KINDERSLEY     LGT SNOW  19  16  86 E16       29.89F VSB 5/8 WCI   5
LLOYDMINSTER   LGT SNOW  10   7  85 NE15G25   30.01S VSB 1   WCI  -6
PRINCE ALBERT  FLURRIES   3   0  85 CALM      30.14S
REGINA         CLOUDY     9   5  85 SE15G22   30.07F WCI  -8
YORKTON        FLURRIES   1   0  92 SE9       30.16F WCI -14


USA.gov is the U.S. government's official web portal to all federal, state and local government web resources and services.